Weather History for West Plains, MO

Change the Weather History Date:

Tuesday, September 17, 2013

  Actual Average Record
Temperature  
Mean Temperature 71 °F 68 °F  
Max Temperature 80 °F 80 °F 97 °F (1953)
Min Temperature 62 °F 56 °F 39 °F (1993)
Degree Days  
Heating Degree Days 0 1  
Month to date heating degree days 4 5  
Since 1 July heating degree days 8 6  
Cooling Degree Days 6 4  
Month to date cooling degree days 150 119  
Year to date cooling degree days 992 1291  
Growing Degree Days 21 (Base 50)    
Moisture  
Dew Point 63 °F    
Average Humidity 74    
Maximum Humidity 93    
Minimum Humidity 54    
Precipitation  
Precipitation 0.16 in 0.11 in 1.13 in (2011)
Month to date precipitation 0.29 2.41  
Year to date precipitation 42.52 32.48  
Sea Level Pressure  
Sea Level Pressure 30.16 in    
Wind  
Wind Speed 4 mph (East)    
Max Wind Speed 9 mph    
Max Gust Speed 13 mph    
Visibility 7 miles    
Events Rain    
T = Trace of Precipitation, MM = Missing Value Source: NWS Daily Summary

Daily Weather History Graph

Daily Weather History Graph

Search for Another Location

Airport:

Trip Planner

Search our weather history database for the weather conditions in past years. The results will help you decide how hot, cold, wet, or windy it might be!

Date:

Astronomy

Sep. 17, 2013 Rise Set
Actual Time 6:51 AM CDT 7:11 PM CDT
Civil Twilight 6:25 AM CDT 7:37 PM CDT
Nautical Twilight 5:55 AM CDT 8:08 PM CDT
Astronomical Twilight 5:24 AM CDT 8:38 PM CDT
Moon 5:57 PM CDT (9/17) 4:48 AM CDT (9/17)
Length of Visible Light 13h 11m
Length of Day
12h 20m
Waxing Gibbous, 96% of the Moon is Illuminated
Sep 17
Waxing Gibbous
Sep 19
Full
Sep 26
Last Quarter
Oct 4
New
Oct 11
First Quarter

Hourly Weather History & Observations

Time (CDT) Temp. Heat Index Dew Point Humidity Pressure Visibility Wind Dir Wind Speed Gust Speed Precip Events Conditions
12:53 AM 63.0 °F - 61.0 °F 93% 30.19 in 7.0 mi ENE 4.6 mph - N/A   Partly Cloudy
1:41 AM 62.6 °F - 60.8 °F 94% 30.22 in 7.0 mi ENE 4.6 mph - N/A   Mostly Cloudy
1:53 AM 63.0 °F - 61.0 °F 93% 30.19 in 7.0 mi ENE 4.6 mph - N/A   Overcast
2:13 AM 62.6 °F - 60.8 °F 94% 30.21 in 7.0 mi East 4.6 mph - 0.00 in Rain Light Rain
2:53 AM 63.0 °F - 60.1 °F 90% 30.18 in 8.0 mi ENE 4.6 mph - 0.00 in   Scattered Clouds
3:53 AM 62.1 °F - 60.1 °F 93% 30.17 in 8.0 mi ENE 5.8 mph - N/A   Overcast
4:53 AM 62.1 °F - 60.1 °F 93% 30.17 in 8.0 mi ENE 3.5 mph - N/A   Overcast
5:53 AM 62.1 °F - 60.1 °F 93% 30.18 in 8.0 mi ENE 3.5 mph - N/A   Mostly Cloudy
6:53 AM 62.1 °F - 60.1 °F 93% 30.19 in 7.0 mi Calm Calm - N/A   Mostly Cloudy
7:36 AM 62.6 °F - 60.8 °F 94% 30.22 in 1.8 mi ENE 3.5 mph - 0.04 in Rain Heavy Rain
7:53 AM 62.1 °F - 60.1 °F 93% 30.21 in 1.8 mi Calm Calm - 0.09 in Rain Rain
8:05 AM 62.6 °F - 60.8 °F 94% 30.22 in 2.0 mi NE 3.5 mph - 0.03 in Rain Rain
8:34 AM 62.6 °F - 60.8 °F 94% 30.22 in 3.0 mi Calm Calm - 0.05 in Rain Light Rain
8:53 AM 63.0 °F - 61.0 °F 93% 30.21 in 3.0 mi ESE 4.6 mph - 0.06 in Rain Light Rain
9:23 AM 62.6 °F - 62.6 °F 100% 30.22 in 3.0 mi East 3.5 mph - 0.00 in   Overcast
9:53 AM 63.0 °F - 62.1 °F 97% 30.20 in 3.0 mi ESE 4.6 mph - 0.00 in   Mostly Cloudy
10:07 AM 64.4 °F - 62.6 °F 94% 30.21 in 2.5 mi ESE 5.8 mph - 0.01 in   Mostly Cloudy
10:17 AM 64.4 °F - 62.6 °F 94% 30.21 in 3.0 mi East 5.8 mph - 0.01 in   Mostly Cloudy
10:53 AM 66.9 °F - 63.0 °F 87% 30.19 in 5.0 mi Calm Calm - 0.01 in   Mostly Cloudy
11:03 AM 66.2 °F - 62.6 °F 88% 30.21 in 6.0 mi Variable 3.5 mph - N/A   Mostly Cloudy
11:23 AM 69.8 °F - 64.4 °F 83% 30.21 in 7.0 mi SE 5.8 mph - N/A   Scattered Clouds
11:53 AM 70.0 °F - 64.9 °F 84% 30.17 in 8.0 mi SE 5.8 mph - N/A   Mostly Cloudy
12:35 PM 75.2 °F - 66.2 °F 73% 30.19 in 10.0 mi SE 5.8 mph - N/A   Scattered Clouds
12:53 PM 73.9 °F - 64.9 °F 73% 30.15 in 10.0 mi South 3.5 mph - N/A   Partly Cloudy
1:53 PM 78.1 °F - 64.9 °F 64% 30.13 in 10.0 mi Calm Calm - N/A   Partly Cloudy
2:53 PM 80.1 °F 81.9 °F 64.9 °F 60% 30.10 in 10.0 mi East 4.6 mph - N/A   Scattered Clouds
3:53 PM 79.0 °F - 64.0 °F 60% 30.09 in 10.0 mi Variable 4.6 mph - N/A   Mostly Cloudy
4:53 PM 80.1 °F 81.5 °F 63.0 °F 56% 30.08 in 10.0 mi East 5.8 mph - N/A   Partly Cloudy
5:53 PM 77.0 °F - 66.0 °F 69% 30.08 in 10.0 mi East 4.6 mph - N/A   Clear
6:53 PM 75.0 °F - 66.9 °F 76% 30.06 in 10.0 mi East 4.6 mph - N/A   Clear
7:53 PM 73.0 °F - 66.9 °F 81% 30.07 in 10.0 mi East 6.9 mph - N/A   Clear
8:53 PM 72.0 °F - 66.9 °F 84% 30.08 in 9.0 mi East 5.8 mph - N/A   Clear
9:53 PM 72.0 °F - 66.9 °F 84% 30.08 in 9.0 mi ESE 6.9 mph - N/A   Clear
10:53 PM 71.1 °F - 66.9 °F 87% 30.08 in 9.0 mi ESE 5.8 mph - N/A   Clear
11:53 PM 71.1 °F - 66.0 °F 84% 30.07 in 9.0 mi SE 4.6 mph - N/A   Clear